Location: Broletto
(44.6000°N, 10.5833°E)
Time: 02:08:06
(UTC+00:00)

Cosmos 2058 - Pass Details

Date: 18 April 2021
Orbit: 562 x 583 km, 82.5° (Epoch: 07 May)

Event Time Altitude Azimuth Distance (km) Brightness Sun altitude
Rises 18:47:27 0° 1° (N) 2,810 6.8 -7.7°
Reaches altitude 10° 18:49:53 10° 12° (NNE) 1,903 5.7 -8.1°
Maximum altitude 18:53:35 30° 74° (ENE) 1,058 3.9 -8.7°
Enters shadow 18:57:06 11° 135° (SE) 1,830 4.9 -9.2°
